Weather History for Princeton, MN

Change the Weather History Date:

Wednesday, September 11, 2013

  Actual Average Record
Temperature  
Mean Temperature 72 °F -  
Max Temperature 84 °F 72 °F 95 °F (2012)
Min Temperature 60 °F 49 °F 32 °F (1999)
Cooling Degree Days 7    
Growing Degree Days 22 (Base 50)    
Moisture  
Dew Point 55 °F    
Average Humidity 61    
Maximum Humidity 94    
Minimum Humidity 27    
Precipitation  
Precipitation 0.00 in - - ()
Sea Level Pressure  
Sea Level Pressure 30.02 in    
Wind  
Wind Speed 4 mph (West)    
Max Wind Speed 17 mph    
Max Gust Speed 23 mph    
Visibility 10 miles    
Events      
Averages and records for this station are not official NWS values.
T = Trace of Precipitation, MM = Missing Value Source: NWS Daily Summary

Daily Weather History Graph

Daily Weather History Graph

Search for Another Location

Airport:

Trip Planner

Search our weather history database for the weather conditions in past years. The results will help you decide how hot, cold, wet, or windy it might be!

Date:

Astronomy

Sep. 11, 2013 Rise Set
Actual Time 6:48 AM CDT 7:32 PM CDT
Civil Twilight 6:18 AM CDT 8:02 PM CDT
Nautical Twilight 5:42 AM CDT 8:38 PM CDT
Astronomical Twilight 5:05 AM CDT 9:15 PM CDT
Moon 1:36 PM CDT (9/11) 11:09 PM CDT (9/11)
Length of Visible Light 13h 44m
Length of Day
12h 44m
Waxing Crescent, 39% of the Moon is Illuminated
Sep 11
Waxing Crescent
Sep 12
First Quarter
Sep 19
Full
Sep 26
Last Quarter
Oct 4
New

Hourly Weather History & Observations

Time (CDT) Temp. Heat Index Dew Point Humidity Pressure Visibility Wind Dir Wind Speed Gust Speed Precip Events Conditions
12:13 AM 62.6 °F - 59.0 °F 88% 29.99 in 10.0 mi Calm Calm - N/A   Clear
12:33 AM 62.6 °F - 57.2 °F 82% 29.99 in 10.0 mi Calm Calm - N/A   Clear
12:53 AM 62.6 °F - 59.0 °F 88% 30.00 in 10.0 mi Calm Calm - N/A   Clear
1:13 AM 60.8 °F - 57.2 °F 88% 29.99 in 10.0 mi Calm Calm - N/A   Clear
1:33 AM 60.8 °F - 57.2 °F 88% 29.99 in 10.0 mi Calm Calm - N/A   Clear
1:54 AM 60.8 °F - 57.2 °F 88% 29.99 in 10.0 mi Calm Calm - N/A   Clear
2:13 AM 60.8 °F - 57.2 °F 88% 29.99 in 10.0 mi Calm Calm - N/A   Clear
2:33 AM 62.6 °F - 59.0 °F 88% 29.99 in 10.0 mi Calm Calm - N/A   Clear
2:53 AM 62.6 °F - 59.0 °F 88% 30.00 in 10.0 mi Calm Calm - N/A   Clear
3:13 AM 62.6 °F - 59.0 °F 88% 30.00 in 10.0 mi Calm Calm - N/A   Clear
3:33 AM 62.6 °F - 59.0 °F 88% 30.00 in 10.0 mi Calm Calm - N/A   Clear
3:53 AM 62.6 °F - 59.0 °F 88% 30.00 in 10.0 mi Calm Calm - N/A   Clear
4:13 AM 60.8 °F - 57.2 °F 88% 30.00 in 10.0 mi South 3.5 mph - N/A   Clear
4:34 AM 60.8 °F - 59.0 °F 94% 30.00 in 10.0 mi Calm Calm - N/A   Clear
4:53 AM 60.8 °F - 59.0 °F 94% 30.00 in 10.0 mi South 3.5 mph - N/A   Clear
5:13 AM 60.8 °F - 59.0 °F 94% 30.00 in 10.0 mi South 3.5 mph - N/A   Clear
5:33 AM 62.6 °F - 59.0 °F 88% 30.00 in 10.0 mi South 3.5 mph - N/A   Clear
5:53 AM 62.6 °F - 60.8 °F 94% 29.99 in 10.0 mi South 3.5 mph - N/A   Clear
6:13 AM 62.6 °F - 60.8 °F 94% 30.00 in 10.0 mi SSW 4.6 mph - N/A   Clear
6:33 AM 62.6 °F - 59.0 °F 88% 29.99 in 10.0 mi Calm Calm - N/A   Clear
6:53 AM 62.6 °F - 60.8 °F 94% 30.00 in 10.0 mi Calm Calm - N/A   Scattered Clouds
7:13 AM 62.6 °F - 59.0 °F 88% 30.00 in 10.0 mi Calm Calm - N/A   Scattered Clouds
7:33 AM 62.6 °F - 60.8 °F 94% 30.00 in 10.0 mi Calm Calm - N/A   Scattered Clouds
7:53 AM 64.4 °F - 60.8 °F 88% 30.00 in 10.0 mi SW 3.5 mph - N/A   Scattered Clouds
8:13 AM 64.4 °F - 60.8 °F 88% 30.01 in 10.0 mi SW 3.5 mph - N/A   Scattered Clouds
8:33 AM 66.2 °F - 60.8 °F 83% 30.01 in 10.0 mi WSW 4.6 mph - N/A   Scattered Clouds
8:53 AM 68.0 °F - 60.8 °F 78% 30.01 in 10.0 mi SW 5.8 mph - N/A   Clear
9:13 AM 71.6 °F - 60.8 °F 69% 30.01 in 10.0 mi West 5.8 mph - N/A   Clear
9:33 AM 71.6 °F - 60.8 °F 69% 30.01 in 10.0 mi West 6.9 mph - N/A   Clear
9:53 AM 73.4 °F - 60.8 °F 65% 30.01 in 10.0 mi West 5.8 mph - N/A   Clear
10:13 AM 75.2 °F - 60.8 °F 61% 30.01 in 10.0 mi West 8.1 mph - N/A   Clear
10:33 AM 77.0 °F - 60.8 °F 57% 30.01 in 10.0 mi West 8.1 mph - N/A   Clear
10:53 AM 78.8 °F - 60.8 °F 54% 30.01 in 10.0 mi West 8.1 mph - N/A   Clear
11:13 AM 78.8 °F - 60.8 °F 54% 30.02 in 10.0 mi WNW 13.8 mph 19.6 mph N/A   Clear
11:33 AM 78.8 °F - 60.8 °F 54% 30.02 in 10.0 mi WNW 11.5 mph 18.4 mph N/A   Clear
11:53 AM 80.6 °F 81.5 °F 60.8 °F 51% 30.02 in 10.0 mi West 11.5 mph 17.3 mph N/A   Clear
12:13 PM 80.6 °F 80.8 °F 57.2 °F 45% 30.03 in 10.0 mi NW 10.4 mph 18.4 mph N/A   Clear
12:30 PM 80.6 °F 80.3 °F 53.6 °F 39% 30.02 in 10.0 mi WNW 13.8 mph 19.6 mph N/A   Clear
12:53 PM 82.4 °F - 51.8 °F 35% 30.03 in 10.0 mi NNW 13.8 mph 21.9 mph N/A   Clear
1:13 PM 82.4 °F - 48.2 °F 30% 30.03 in 10.0 mi WNW 11.5 mph - N/A   Clear
1:33 PM 84.2 °F - 48.2 °F 29% 30.03 in 10.0 mi WNW 12.7 mph 18.4 mph N/A   Clear
1:54 PM 84.2 °F - 46.4 °F 27% 30.03 in 10.0 mi WNW 13.8 mph 23.0 mph N/A   Clear
2:13 PM 84.2 °F - 48.2 °F 29% 30.03 in 10.0 mi West 17.3 mph 20.7 mph N/A   Clear
2:33 PM 84.2 °F - 48.2 °F 29% 30.03 in 10.0 mi WNW 10.4 mph 18.4 mph N/A   Clear
2:52 PM 84.2 °F - 46.4 °F 27% 30.03 in 10.0 mi NW 13.8 mph 20.7 mph N/A   Scattered Clouds
3:13 PM 84.2 °F - 48.2 °F 29% 30.03 in 10.0 mi WNW 13.8 mph 18.4 mph N/A   Clear
3:33 PM 82.4 °F - 48.2 °F 30% 30.03 in 10.0 mi NW 12.7 mph 19.6 mph N/A   Clear
3:52 PM 82.4 °F - 48.2 °F 30% 30.03 in 10.0 mi WNW 10.4 mph - N/A   Clear
4:13 PM 84.2 °F - 50.0 °F 30% 30.03 in 10.0 mi NW 11.5 mph 18.4 mph N/A   Scattered Clouds
4:33 PM 84.2 °F - 48.2 °F 29% 30.02 in 10.0 mi West 11.5 mph 16.1 mph N/A   Clear
4:53 PM 84.2 °F - 50.0 °F 30% 30.02 in 10.0 mi WNW 10.4 mph 17.3 mph N/A   Scattered Clouds
5:13 PM 82.4 °F - 50.0 °F 32% 30.02 in 10.0 mi WNW 10.4 mph - N/A   Scattered Clouds
5:33 PM 82.4 °F - 50.0 °F 32% 30.02 in 10.0 mi West 10.4 mph 17.3 mph N/A   Clear
5:53 PM 80.6 °F - 48.2 °F 32% 30.02 in 10.0 mi West 10.4 mph - N/A   Clear
6:13 PM 80.6 °F - 50.0 °F 34% 30.01 in 10.0 mi West 11.5 mph 17.3 mph N/A   Clear
6:33 PM 80.6 °F - 50.0 °F 34% 30.01 in 10.0 mi West 5.8 mph - N/A   Clear
6:53 PM 78.8 °F - 51.8 °F 39% 30.00 in 10.0 mi West 3.5 mph - N/A   Clear
7:13 PM 75.2 °F - 53.6 °F 47% 30.00 in 10.0 mi Calm Calm - N/A   Clear
7:33 PM 71.6 °F - 55.4 °F 57% 30.00 in 10.0 mi Calm Calm - N/A   Clear
7:53 PM 69.8 °F - 55.4 °F 60% 30.01 in 10.0 mi Calm Calm - N/A   Clear
8:13 PM 69.8 °F - 53.6 °F 56% 30.02 in 10.0 mi West 8.1 mph - N/A   Clear
8:33 PM 71.6 °F - 53.6 °F 53% 30.03 in 10.0 mi West 8.1 mph - N/A   Clear
8:53 PM 71.6 °F - 53.6 °F 53% 30.04 in 10.0 mi WNW 9.2 mph - N/A   Clear
9:13 PM 71.6 °F - 53.6 °F 53% 30.05 in 10.0 mi WNW 9.2 mph - N/A   Clear
9:33 PM 69.8 °F - 51.8 °F 53% 30.06 in 10.0 mi WNW 9.2 mph - N/A   Clear
9:53 PM 69.8 °F - 50.0 °F 49% 30.06 in 10.0 mi WNW 6.9 mph - N/A   Clear
10:13 PM 68.0 °F - 48.2 °F 49% 30.06 in 10.0 mi WNW 8.1 mph - N/A   Clear
10:33 PM 66.2 °F - 48.2 °F 52% 30.07 in 10.0 mi WNW 8.1 mph - N/A   Clear
10:53 PM 66.2 °F - 48.2 °F 52% 30.08 in 10.0 mi WNW 6.9 mph - N/A   Clear
11:13 PM 64.4 °F - 48.2 °F 56% 30.08 in 10.0 mi WNW 5.8 mph - N/A   Clear
11:33 PM 62.6 °F - 48.2 °F 59% 30.08 in 10.0 mi WNW 5.8 mph - N/A   Clear
11:53 PM 62.6 °F - 50.0 °F 63% 30.09 in 10.0 mi WNW 8.1 mph - N/A   Clear